,,Stat6,,Stat2,,Stat8,,Stat9,,Stat10,,Wind1,,Wind1,
time,status,PA1M_AVG,status,PR1M_SUM,status,RH1M_AVG,status,SR1M_AVG,status,TA1M_AVG,status,W1dAve1m,status,W1sAve1m,
2008-02-13, 00:00:00,VALID,917.341,VALID,0,VALID,92.5258,VALID,-0.0339617,VALID,19.9873,VALID,131,VALID,1.12305,
2008-02-13, 00:01:00,VALID,917.33,VALID,0,VALID,92.7992,VALID,0,VALID,19.9284,VALID,126,VALID,1.22561,
2008-02-13, 00:02:00,VALID,917.312,VALID,0,VALID,93.0484,VALID,-0.0509425,VALID,19.8603,VALID,129,VALID,1.47118,
2008-02-13, 00:03:00,VALID,917.297,VALID,0,VALID,93.3027,VALID,-0.0339617,VALID,19.8316,VALID,129,VALID,1.41279,
2008-02-13, 00:04:00,VALID,917.282,VALID,0,VALID,93.5062,VALID,-0.0169808,VALID,19.7926,VALID,130,VALID,1.31083,
2008-02-13, 00:05:00,VALID,917.263,VALID,0,VALID,93.7478,VALID,-0.0679233,VALID,19.7535,VALID,137,VALID,1.19017,
2008-02-13, 00:06:00,VALID,917.26,VALID,0,VALID,93.9398,VALID,-0.0509425,VALID,19.7178,VALID,154,VALID,0.0889137,
2008-02-13, 00:07:00,VALID,917.266,VALID,0,VALID,94.2348,VALID,-0.0169808,VALID,19.7078,VALID,148,VALID,1.1599,
2008-02-13, 00:08:00,VALID,917.281,VALID,0,VALID,94.1089,VALID,0,VALID,19.7372,VALID,140,VALID,1.29967,
2008-02-13, 00:09:00,VALID,917.275,VALID,0,VALID,94.0364,VALID,-0.0339617,VALID,19.7465,VALID,141,VALID,1.4176,
2008-02-13, 00:10:00,VALID,917.268,VALID,0,VALID,94.1038,VALID,0,VALID,19.7565,VALID,140,VALID,1.56623,
2008-02-13, 00:11:00,VALID,917.247,VALID,0,VALID,94.1051,VALID,0,VALID,19.7662,VALID,149,VALID,1.21447,
2008-02-13, 00:12:00,VALID,917.241,VALID,0,VALID,94.0085,VALID,-0.0169808,VALID,19.7724,VALID,138,VALID,1.21893,
2008-02-13, 00:13:00,VALID,917.229,VALID,0,VALID,93.9792,VALID,0,VALID,19.7497,VALID,131,VALID,1.55878,
2008-02-13, 00:14:00,VALID,917.23,VALID,0,VALID,94.1941,VALID,-0.0169808,VALID,19.721,VALID,138,VALID,1.56864,
2008-02-13, 00:15:00,VALID,917.234,VALID,0,VALID,94.3238,VALID,-0.0169808,VALID,19.711,VALID,136,VALID,1.4979,
2008-02-13, 00:16:00,VALID,917.222,VALID,0,VALID,94.4497,VALID,-0.0169808,VALID,19.7085,VALID,152,VALID,1.50205,
2008-02-13, 00:17:00,VALID,917.212,VALID,0,VALID,94.5769,VALID,-0.0169808,VALID,19.7048,VALID,152,VALID,1.19566,
2008-02-13, 00:18:00,VALID,917.192,VALID,0,VALID,94.4624,VALID,-0.0339617,VALID,19.7243,VALID,153,VALID,0.721912,
2008-02-13, 00:19:00,VALID,917.179,VALID,0,VALID,94.4637,VALID,-0.0849042,VALID,19.728,VALID,159,VALID,1.35175,
2008-02-13, 00:20:00,VALID,917.177,VALID,0,VALID,94.4294,VALID,0,VALID,19.7273,VALID,161,VALID,1.31998,
2008-02-13, 00:21:00,VALID,917.179,VALID,0,VALID,94.3658,VALID,-0.0509425,VALID,19.744,VALID,136,VALID,1.43304,
2008-02-13, 00:22:00,VALID,917.155,VALID,0,VALID,94.3505,VALID,-0.0169808,VALID,19.7465,VALID,143,VALID,1.36166,
2008-02-13, 00:23:00,VALID,917.153,VALID,0,VALID,94.3136,VALID,-0.0169808,VALID,19.7627,VALID,150,VALID,0.553516,
2008-02-13, 00:24:00,VALID,917.148,VALID,0,VALID,94.278,VALID,0,VALID,19.7757,VALID,165,VALID,0.981357,
2008-02-13, 00:25:00,VALID,917.128,VALID,0,VALID,94.1954,VALID,0.0339617,VALID,19.7919,VALID,153,VALID,1.65225,
2008-02-13, 00:26:00,VALID,917.123,VALID,0,VALID,94.1382,VALID,0,VALID,19.8114,VALID,157,VALID,1.89405,
2008-02-13, 00:27:00,VALID,917.108,VALID,0,VALID,94.0784,VALID,0,VALID,19.8276,VALID,154,VALID,1.6769,
2008-02-13, 00:28:00,VALID,917.087,VALID,0,VALID,93.936,VALID,0,VALID,19.8376,VALID,151,VALID,1.05188,
2008-02-13, 00:29:00,VALID,917.061,VALID,0,VALID,93.9093,VALID,0,VALID,19.8311,VALID,164,VALID,1.37147,
2008-02-13, 00:30:00,VALID,917.027,VALID,0,VALID,94.0822,VALID,-0.0169808,VALID,19.8211,VALID,160,VALID,1.70217,
2008-02-13, 00:31:00,VALID,917.034,VALID,0,VALID,94.0542,VALID,0,VALID,19.8308,VALID,156,VALID,1.46816,
2008-02-13, 00:32:00,VALID,917.031,VALID,0,VALID,94.0428,VALID,0,VALID,19.8338,VALID,162,VALID,1.37705,
2008-02-13, 00:33:00,VALID,917.019,VALID,0,VALID,94.1064,VALID,0,VALID,19.8246,VALID,160,VALID,1.37556,
2008-02-13, 00:34:00,VALID,917.012,VALID,0,VALID,94.189,VALID,0,VALID,19.8054,VALID,151,VALID,0.94351,
2008-02-13, 00:35:00,VALID,916.988,VALID,0,VALID,94.3594,VALID,0,VALID,19.7854,VALID,158,VALID,1.18883,
2008-02-13, 00:36:00,VALID,916.957,VALID,0,VALID,94.3594,VALID,0,VALID,19.7954,VALID,142,VALID,1.35231,
2008-02-13, 00:37:00,VALID,916.93,VALID,0,VALID,94.4001,VALID,-0.0169808,VALID,19.7789,VALID,130,VALID,1.05646,
2008-02-13, 00:38:00,VALID,916.903,VALID,0,VALID,94.5654,VALID,-0.0339617,VALID,19.7367,VALID,135,VALID,1.3512,
2008-02-13, 00:39:00,VALID,916.905,VALID,0,VALID,94.7244,VALID,-0.0509425,VALID,19.714,VALID,136,VALID,1.3853,
2008-02-13, 00:40:00,VALID,916.908,VALID,0,VALID,94.8019,VALID,0,VALID,19.7075,VALID,157,VALID,0.984375,
2008-02-13, 00:41:00,VALID,916.902,VALID,0,VALID,94.9431,VALID,-0.0339617,VALID,19.7043,VALID,154,VALID,1.38172,
2008-02-13, 00:42:00,VALID,916.898,VALID,0,VALID,94.8172,VALID,-0.0169808,VALID,19.7335,VALID,140,VALID,1.2321,
2008-02-13, 00:43:00,VALID,916.884,VALID,0,VALID,94.8019,VALID,-0.0849042,VALID,19.7437,VALID,136,VALID,1.65923,
2008-02-13, 00:44:00,VALID,916.88,VALID,0,VALID,94.8757,VALID,-0.0169808,VALID,19.7342,VALID,134,VALID,1.46057,
2008-02-13, 00:45:00,VALID,916.847,VALID,0,VALID,94.9037,VALID,-0.0509425,VALID,19.7447,VALID,153,VALID,0.690739,
2008-02-13, 00:46:00,VALID,916.853,VALID,0,VALID,94.8731,VALID,-0.0509425,VALID,19.7407,VALID,145,VALID,1.51124,
2008-02-13, 00:47:00,VALID,916.83,VALID,0,VALID,94.8528,VALID,-0.0849042,VALID,19.744,VALID,155,VALID,1.02634,
2008-02-13, 00:48:00,VALID,916.848,VALID,0,VALID,94.821,VALID,-0.0509425,VALID,19.7667,VALID,152,VALID,1.42751,
2008-02-13, 00:49:00,VALID,916.863,VALID,0,VALID,94.7574,VALID,-0.0679233,VALID,19.7832,VALID,154,VALID,1.07626,
2008-02-13, 00:50:00,VALID,916.845,VALID,0,VALID,94.7536,VALID,-0.101885,VALID,19.7924,VALID,156,VALID,1.13491,
2008-02-13, 00:51:00,VALID,916.837,VALID,0,VALID,94.6837,VALID,0,VALID,19.8019,VALID,154,VALID,1.40376,
2008-02-13, 00:52:00,VALID,916.849,VALID,0,VALID,94.6633,VALID,-0.0679233,VALID,19.8021,VALID,157,VALID,1.32413,
2008-02-13, 00:53:00,VALID,916.846,VALID,0,VALID,94.779,VALID,-0.0509425,VALID,19.8094,VALID,139,VALID,1.53316,
2008-02-13, 00:54:00,VALID,916.838,VALID,0,VALID,94.8121,VALID,-0.0509425,VALID,19.7989,VALID,155,VALID,1.4842,
2008-02-13, 00:55:00,VALID,916.828,VALID,0,VALID,94.8833,VALID,-0.0849042,VALID,19.8026,VALID,155,VALID,0.826172,
2008-02-13, 00:56:00,VALID,916.812,VALID,0,VALID,94.9151,VALID,-0.0849042,VALID,19.7897,VALID,154,VALID,0.236979,
2008-02-13, 00:57:00,VALID,916.794,VALID,0,VALID,94.9393,VALID,-0.0679233,VALID,19.7862,VALID,142,VALID,0.0638021,
2008-02-13, 00:58:00,VALID,916.764,VALID,0,VALID,94.9876,VALID,0.0679233,VALID,19.7649,VALID,149,VALID,1.13411,
2008-02-13, 00:59:00,VALID,916.745,VALID,0,VALID,95.0982,VALID,0.0679233,VALID,19.7457,VALID,149,VALID,1.1077,
2008-02-13, 01:00:00,VALID,916.716,VALID,0,VALID,95.2508,VALID,0.0339617,VALID,19.7263,VALID,162,VALID,1.39844,
2008-02-13, 01:01:00,VALID,916.703,VALID,0,VALID,95.2864,VALID,0.0169808,VALID,19.7033,VALID,143,VALID,0.863636,
2008-02-13, 01:02:00,VALID,916.705,VALID,0,VALID,95.5051,VALID,0.0679233,VALID,19.6938,VALID,152,VALID,2.01353,
2008-02-13, 01:03:00,VALID,916.7,VALID,0,VALID,95.4784,VALID,0.0509425,VALID,19.71,VALID,142,VALID,1.10004,
2008-02-13, 01:04:00,VALID,916.686,VALID,0,VALID,95.4822,VALID,0.0679233,VALID,19.7001,VALID,156,VALID,1.28962,
2008-02-13, 01:05:00,VALID,916.688,VALID,0,VALID,95.5446,VALID,0.0849042,VALID,19.6971,VALID,161,VALID,1.60065,
2008-02-13, 01:06:00,VALID,916.678,VALID,0,VALID,95.5725,VALID,0,VALID,19.7001,VALID,167,VALID,1.50632,
2008-02-13, 01:07:00,VALID,916.66,VALID,0,VALID,95.6374,VALID,0.0339617,VALID,19.7098,VALID,169,VALID,1.63225,
2008-02-13, 01:08:00,VALID,916.663,VALID,0,VALID,95.4988,VALID,0.0509425,VALID,19.7265,VALID,148,VALID,0.784624,
2008-02-13, 01:09:00,VALID,916.67,VALID,0,VALID,95.4784,VALID,0.0849042,VALID,19.716,VALID,152,VALID,1.21742,
2008-02-13, 01:10:00,VALID,916.646,VALID,0,VALID,95.4873,VALID,0.0849042,VALID,19.7098,VALID,162,VALID,0.633185,
2008-02-13, 01:11:00,VALID,916.639,VALID,0,VALID,95.6247,VALID,0.0509425,VALID,19.7125,VALID,162,VALID,0.919457,
2008-02-13, 01:12:00,VALID,916.604,VALID,0,VALID,95.584,VALID,0.0509425,VALID,19.7228,VALID,161,VALID,0.351381,
2008-02-13, 01:13:00,VALID,916.593,VALID,0,VALID,95.6399,VALID,-0.0849042,VALID,19.734,VALID,150,VALID,1.64335,
2008-02-13, 01:14:00,VALID,916.592,VALID,0,VALID,95.5954,VALID,-0.0339617,VALID,19.7173,VALID,152,VALID,0.414621,
2008-02-13, 01:15:00,VALID,916.579,VALID,0,VALID,95.7823,VALID,-0.0169808,VALID,19.718,VALID,156,VALID,1.27801,
2008-02-13, 01:16:00,VALID,916.567,VALID,0,VALID,95.7836,VALID,-0.0339617,VALID,19.7208,VALID,153,VALID,1.09724,
2008-02-13, 01:17:00,VALID,916.542,VALID,0,VALID,95.7366,VALID,-0.0169808,VALID,19.7175,VALID,156,VALID,0.934273,
2008-02-13, 01:18:00,VALID,916.535,VALID,0,VALID,95.8345,VALID,-0.0339617,VALID,19.7045,VALID,153,VALID,1.34931,
2008-02-13, 01:19:00,VALID,916.517,VALID,0,VALID,95.9502,VALID,-0.0339617,VALID,19.7048,VALID,152,VALID,0.986285,
2008-02-13, 01:20:00,VALID,916.493,VALID,0,VALID,95.9273,VALID,-0.0509425,VALID,19.7153,VALID,159,VALID,0.34702,
2008-02-13, 01:21:00,VALID,916.478,VALID,0,VALID,95.8637,VALID,-0.0509425,VALID,19.7016,VALID,150,VALID,0.34157,
2008-02-13, 01:22:00,VALID,916.486,VALID,0,VALID,95.9248,VALID,-0.0169808,VALID,19.6751,VALID,157,VALID,0.880814,
2008-02-13, 01:23:00,VALID,916.491,VALID,0,VALID,96.0659,VALID,-0.0169808,VALID,19.6589,VALID,144,VALID,1.49063,
2008-02-13, 01:24:00,VALID,916.474,VALID,0,VALID,96.1689,VALID,-0.0509425,VALID,19.6561,VALID,156,VALID,1.37519,
2008-02-13, 01:25:00,VALID,916.468,VALID,0,VALID,96.1956,VALID,-0.0339617,VALID,19.6491,VALID,160,VALID,1.53295,
2008-02-13, 01:26:00,VALID,916.482,VALID,0,VALID,96.1931,VALID,-0.0679233,VALID,19.6559,VALID,162,VALID,1.07085,
2008-02-13, 01:27:00,VALID,916.477,VALID,0,VALID,96.1142,VALID,-0.0169808,VALID,19.6624,VALID,161,VALID,1.22656,
2008-02-13, 01:28:00,VALID,916.474,VALID,0,VALID,96.0621,VALID,0.0339617,VALID,19.6654,VALID,163,VALID,1.20084,
2008-02-13, 01:29:00,VALID,916.456,VALID,0,VALID,96.0964,VALID,0,VALID,19.6556,VALID,150,VALID,1.4682,
2008-02-13, 01:30:00,VALID,916.431,VALID,0,VALID,96.2083,VALID,0,VALID,19.6556,VALID,160,VALID,1.24582,
2008-02-13, 01:31:00,VALID,916.414,VALID,0,VALID,96.1994,VALID,-0.0169808,VALID,19.6427,VALID,149,VALID,0.175595,
2008-02-13, 01:32:00,VALID,916.398,VALID,0,VALID,96.2579,VALID,0,VALID,19.6397,VALID,146,VALID,1.02973,
2008-02-13, 01:33:00,VALID,916.394,VALID,0,VALID,96.2783,VALID,-0.0339617,VALID,19.6332,VALID,156,VALID,1.07177,
2008-02-13, 01:34:00,VALID,916.386,VALID,0,VALID,96.2935,VALID,-0.0509425,VALID,19.6199,VALID,152,VALID,0.740945,
2008-02-13, 01:35:00,VALID,916.372,VALID,0,VALID,96.3775,VALID,-0.0339617,VALID,19.6202,VALID,147,VALID,1.20859,
2008-02-13, 01:36:00,VALID,916.38,VALID,0,VALID,96.4003,VALID,-0.0169808,VALID,19.6234,VALID,151,VALID,1.31615,
2008-02-13, 01:37:00,VALID,916.382,VALID,0,VALID,96.4067,VALID,0,VALID,19.6362,VALID,151,VALID,1.29055,
2008-02-13, 01:38:00,VALID,916.39,VALID,0,VALID,96.3393,VALID,0,VALID,19.6234,VALID,148,VALID,1.24733,
2008-02-13, 01:39:00,VALID,916.388,VALID,0,VALID,96.3953,VALID,0,VALID,19.6234,VALID,138,VALID,1.06676,
2008-02-13, 01:40:00,VALID,916.378,VALID,0,VALID,96.4181,VALID,0,VALID,19.6135,VALID,148,VALID,1.20065,
2008-02-13, 01:41:00,VALID,916.369,VALID,0,VALID,96.4283,VALID,0,VALID,19.6102,VALID,156,VALID,0.771341,
2008-02-13, 01:42:00,VALID,916.372,VALID,0,VALID,96.4143,VALID,0,VALID,19.6167,VALID,162,VALID,0.135538,
2008-02-13, 01:43:00,VALID,916.383,VALID,0,VALID,96.4042,VALID,-0.0169808,VALID,19.607,VALID,156,VALID,0.0422247,
2008-02-13, 01:44:00,VALID,916.389,VALID,0,VALID,96.4601,VALID,0,VALID,19.5905,VALID,143,VALID,0.0502232,
2008-02-13, 01:45:00,VALID,916.385,VALID,0,VALID,96.5517,VALID,-0.0169808,VALID,19.581,VALID,133,VALID,0.150781,
2008-02-13, 01:46:00,VALID,916.399,VALID,0,VALID,96.6102,VALID,0.0169808,VALID,19.581,VALID,144,VALID,0,
2008-02-13, 01:47:00,VALID,916.399,VALID,0,VALID,96.6,VALID,0,VALID,19.5778,VALID,155,VALID,0,
2008-02-13, 01:48:00,VALID,916.415,VALID,0,VALID,96.6407,VALID,0,VALID,19.578,VALID,145,VALID,0.0485899,
2008-02-13, 01:49:00,VALID,916.423,VALID,0,VALID,96.6483,VALID,0,VALID,19.5778,VALID,152,VALID,0.0470567,
2008-02-13, 01:50:00,VALID,916.415,VALID,0,VALID,96.6865,VALID,0.0339617,VALID,19.5581,VALID,162,VALID,0.0452009,
2008-02-13, 01:51:00,VALID,916.428,VALID,0,VALID,96.7004,VALID,0,VALID,19.5648,VALID,144,VALID,0.0893111,
2008-02-13, 01:52:00,VALID,916.425,VALID,0,VALID,96.7742,VALID,0,VALID,19.5678,VALID,147,VALID,1.44822,
2008-02-13, 01:53:00,VALID,916.428,VALID,0,VALID,96.6419,VALID,0.0169808,VALID,19.5778,VALID,160,VALID,0.96875,
2008-02-13, 01:54:00,VALID,916.455,VALID,0,VALID,96.5479,VALID,-0.0169808,VALID,19.5745,VALID,141,VALID,0,
2008-02-13, 01:55:00,VALID,916.481,VALID,0,VALID,96.5606,VALID,0.0169808,VALID,19.5418,VALID,136,VALID,0.0670421,
2008-02-13, 01:56:00,VALID,916.509,VALID,0,VALID,96.7945,VALID,0,VALID,19.5358,VALID,138,VALID,0.288352,
2008-02-13, 01:57:00,VALID,916.521,VALID,0,VALID,96.9242,VALID,0,VALID,19.5421,VALID,136,VALID,0.314174,
2008-02-13, 01:58:00,VALID,916.549,VALID,0,VALID,96.909,VALID,0.0169808,VALID,19.5551,VALID,144,VALID,0.584484,
2008-02-13, 01:59:00,VALID,916.541,VALID,0,VALID,96.8912,VALID,0,VALID,19.5616,VALID,135,VALID,0.361049,
2008-02-13, 02:00:01,VALID,916.545,VALID,0,VALID,96.895,VALID,0.0339617,VALID,19.5616,VALID,137,VALID,0.318132,
2008-02-13, 02:01:01,VALID,916.529,VALID,0,VALID,96.895,VALID,0.0169808,VALID,19.5678,VALID,133,VALID,0.0801235,
2008-02-13, 02:02:00,VALID,916.512,VALID,0,VALID,96.8543,VALID,0,VALID,19.5778,VALID,133,VALID,0.0805432,
2008-02-13, 02:03:00,VALID,916.498,VALID,0,VALID,96.9624,VALID,0,VALID,19.5645,VALID,144,VALID,0.0904796,
2008-02-13, 02:04:00,VALID,916.491,VALID,0,VALID,96.998,VALID,0,VALID,19.5715,VALID,151,VALID,0,
2008-02-13, 02:05:00,VALID,916.489,VALID,0,VALID,97.0629,VALID,-0.0169808,VALID,19.5713,VALID,157,VALID,0.47894,
2008-02-13, 02:06:01,VALID,916.492,VALID,0,VALID,97.1264,VALID,0,VALID,19.5773,VALID,147,VALID,1.57109,
2008-02-13, 02:07:01,VALID,916.493,VALID,0,VALID,97.0832,VALID,0.0169808,VALID,19.6005,VALID,147,VALID,1.24751,
2008-02-13, 02:08:01,VALID,916.496,VALID,0,VALID,96.9916,VALID,0,VALID,19.607,VALID,167,VALID,0.301417,
2008-02-13, 02:09:01,VALID,916.494,VALID,0,VALID,97.0044,VALID,0,VALID,19.6037,VALID,158,VALID,0.106326,
2008-02-13, 02:10:01,VALID,916.504,VALID,0,VALID,97.0107,VALID,0,VALID,19.6005,VALID,149,VALID,0.17359,
2008-02-13, 02:11:00,VALID,916.499,VALID,0,VALID,97.0374,VALID,0,VALID,19.6005,VALID,151,VALID,0.347834,
2008-02-13, 02:12:00,VALID,916.481,VALID,0,VALID,97.1239,VALID,0,VALID,19.5838,VALID,160,VALID,1.13941,
2008-02-13, 02:13:01,VALID,916.474,VALID,0,VALID,97.1048,VALID,0,VALID,19.5937,VALID,168,VALID,0.970486,
2008-02-13, 02:14:00,VALID,916.481,VALID,0,VALID,97.1277,VALID,0,VALID,19.5875,VALID,168,VALID,0.915365,
2008-02-13, 02:15:01,VALID,916.476,VALID,0,VALID,97.1875,VALID,0,VALID,19.581,VALID,161,VALID,1.25837,
2008-02-13, 02:16:01,VALID,916.494,VALID,0,VALID,97.1366,VALID,-0.0339617,VALID,19.5805,VALID,141,VALID,0.603016,
2008-02-13, 02:17:00,VALID,916.499,VALID,0,VALID,97.1353,VALID,0,VALID,19.594,VALID,132,VALID,0.999628,
2008-02-13, 02:18:01,VALID,916.506,VALID,0,VALID,97.129,VALID,-0.0169808,VALID,19.5972,VALID,138,VALID,0.656771,
2008-02-13, 02:19:00,VALID,916.493,VALID,0,VALID,97.1608,VALID,0.0509425,VALID,19.5907,VALID,144,VALID,0.60423,
2008-02-13, 02:20:00,VALID,916.463,VALID,0,VALID,97.19,VALID,-0.0169808,VALID,19.5907,VALID,162,VALID,0.898628,
2008-02-13, 02:21:00,VALID,916.437,VALID,0,VALID,97.1646,VALID,0,VALID,19.5808,VALID,147,VALID,0.860352,
2008-02-13, 02:22:01,VALID,916.417,VALID,0,VALID,97.1633,VALID,-0.0509425,VALID,19.5808,VALID,162,VALID,1.38203,
2008-02-13, 02:23:00,VALID,916.399,VALID,0,VALID,97.0807,VALID,0,VALID,19.5843,VALID,139,VALID,0.732469,
2008-02-13, 02:24:01,VALID,916.387,VALID,0,VALID,97.0044,VALID,0,VALID,19.5813,VALID,131,VALID,0.899009,
2008-02-13, 02:25:00,VALID,916.401,VALID,0,VALID,97.0018,VALID,0,VALID,19.5678,VALID,131,VALID,0.447545,
2008-02-13, 02:26:00,VALID,916.407,VALID,0,VALID,97.0692,VALID,-0.0169808,VALID,19.5488,VALID,140,VALID,0.531783,
2008-02-13, 02:27:01,VALID,916.388,VALID,0,VALID,97.1404,VALID,0.0169808,VALID,19.5418,VALID,143,VALID,1.14063,
2008-02-13, 02:28:00,VALID,916.375,VALID,0,VALID,97.1633,VALID,0.0169808,VALID,19.5388,VALID,146,VALID,1.14063,
2008-02-13, 02:29:00,VALID,916.376,VALID,0,VALID,97.0946,VALID,0,VALID,19.5356,VALID,133,VALID,0.689317,
2008-02-13, 02:30:00,VALID,916.369,VALID,0,VALID,97.0997,VALID,0,VALID,19.5586,VALID,128,VALID,0.932231,
2008-02-13, 02:31:00,VALID,916.355,VALID,0,VALID,97.0667,VALID,-0.0169808,VALID,19.5616,VALID,140,VALID,1.402,
2008-02-13, 02:32:00,VALID,916.353,VALID,0,VALID,97.0514,VALID,0.0169808,VALID,19.5548,VALID,138,VALID,1.31752,
2008-02-13, 02:33:00,VALID,916.356,VALID,0,VALID,97.0603,VALID,0.0169808,VALID,19.5551,VALID,133,VALID,1.16424,
2008-02-13, 02:34:00,VALID,916.334,VALID,0,VALID,97.1137,VALID,0,VALID,19.5486,VALID,137,VALID,1.46414,
2008-02-13, 02:35:00,VALID,916.338,VALID,0,VALID,97.1722,VALID,-0.0169808,VALID,19.5421,VALID,153,VALID,1.44016,
2008-02-13, 02:36:00,VALID,916.332,VALID,0,VALID,97.2536,VALID,0,VALID,19.5259,VALID,154,VALID,0.551781,
2008-02-13, 02:37:01,VALID,916.306,VALID,0,VALID,97.2765,VALID,-0.0169808,VALID,19.5264,VALID,135,VALID,1.10863,
2008-02-13, 02:38:00,VALID,916.31,VALID,0,VALID,97.2027,VALID,0,VALID,19.5064,VALID,146,VALID,1.18331,
2008-02-13, 02:39:00,VALID,916.304,VALID,0,VALID,97.1468,VALID,0,VALID,19.4967,VALID,122,VALID,0.995898,
2008-02-13, 02:40:00,VALID,916.302,VALID,0,VALID,97.1786,VALID,0,VALID,19.4672,VALID,131,VALID,0.250381,
2008-02-13, 02:41:01,VALID,916.296,VALID,0,VALID,97.1086,VALID,0,VALID,19.474,VALID,121,VALID,0.0118056,
2008-02-13, 02:42:00,VALID,916.309,VALID,0,VALID,96.9942,VALID,0.0169808,VALID,19.477,VALID,122,VALID,0.0959821,
2008-02-13, 02:43:01,VALID,916.319,VALID,0,VALID,96.9103,VALID,0.135847,VALID,19.4855,VALID,144,VALID,1.06463,
2008-02-13, 02:44:01,VALID,916.324,VALID,0,VALID,96.8162,VALID,0.118866,VALID,19.4952,VALID,146,VALID,0.908854,
2008-02-13, 02:45:01,VALID,916.347,VALID,0,VALID,96.675,VALID,0.118866,VALID,19.4947,VALID,157,VALID,0,
2008-02-13, 02:46:01,VALID,916.359,VALID,0,VALID,96.5606,VALID,0.118866,VALID,19.5052,VALID,151,VALID,0.534951,
2008-02-13, 02:47:00,VALID,916.373,VALID,0,VALID,96.4525,VALID,0.101885,VALID,19.479,VALID,129,VALID,0.389881,
2008-02-13, 02:48:01,VALID,916.378,VALID,0,VALID,96.3406,VALID,0.101885,VALID,19.4695,VALID,136,VALID,1.00566,
2008-02-13, 02:49:01,VALID,916.378,VALID,0,VALID,96.202,VALID,0.0849042,VALID,19.4757,VALID,119,VALID,1.02813,
2008-02-13, 02:50:01,VALID,916.369,VALID,0,VALID,96.0278,VALID,0.0849042,VALID,19.4725,VALID,132,VALID,0.96766,
2008-02-13, 02:51:01,VALID,916.363,VALID,0,VALID,95.9311,VALID,0.101885,VALID,19.463,VALID,128,VALID,0.736243,
2008-02-13, 02:52:01,VALID,916.35,VALID,0,VALID,95.7467,VALID,0.118866,VALID,19.469,VALID,117,VALID,1.12274,
2008-02-13, 02:53:01,VALID,916.353,VALID,0,VALID,95.6158,VALID,0.101885,VALID,19.5007,VALID,110,VALID,0.844965,
2008-02-13, 02:54:01,VALID,916.347,VALID,0,VALID,95.598,VALID,0.101885,VALID,19.5306,VALID,116,VALID,1.32649,
2008-02-13, 02:55:01,VALID,916.329,VALID,0,VALID,95.4822,VALID,0.0849042,VALID,19.5506,VALID,119,VALID,0.953303,
2008-02-13, 02:56:00,VALID,916.319,VALID,0,VALID,95.4034,VALID,0.135847,VALID,19.5371,VALID,117,VALID,0.994913,
2008-02-13, 02:57:00,VALID,916.315,VALID,0,VALID,95.4098,VALID,0.118866,VALID,19.5149,VALID,117,VALID,0.72832,
2008-02-13, 02:58:00,VALID,916.306,VALID,0,VALID,95.5166,VALID,0,VALID,19.5029,VALID,102,VALID,1.26708,
2008-02-13, 02:59:00,VALID,916.29,VALID,0,VALID,95.6615,VALID,-0.0169808,VALID,19.4904,VALID,104,VALID,1.07946,
2008-02-13, 03:00:00,VALID,916.291,VALID,0,VALID,95.5522,VALID,0,VALID,19.4513,VALID,129,VALID,1.21893,
2008-02-13, 03:01:00,VALID,916.289,VALID,0,VALID,95.5229,VALID,0.0339617,VALID,19.4253,VALID,132,VALID,1.08403,
2008-02-13, 03:02:00,VALID,916.274,VALID,0,VALID,95.4797,VALID,0,VALID,19.3929,VALID,131,VALID,1.5206,
2008-02-13, 03:03:00,VALID,916.256,VALID,0,VALID,95.4543,VALID,0,VALID,19.3734,VALID,115,VALID,1.31771,
2008-02-13, 03:04:00,VALID,916.232,VALID,0,VALID,95.3551,VALID,0,VALID,19.3504,VALID,112,VALID,1.02021,
2008-02-13, 03:05:00,VALID,916.231,VALID,0,VALID,95.3983,VALID,0.0169808,VALID,19.3245,VALID,128,VALID,1.36662,
2008-02-13, 03:06:00,VALID,916.238,VALID,0,VALID,95.4021,VALID,0.0169808,VALID,19.318,VALID,125,VALID,0.299361,
2008-02-13, 03:07:00,VALID,916.232,VALID,0,VALID,95.4288,VALID,0,VALID,19.3053,VALID,109,VALID,0,
2008-02-13, 03:08:00,VALID,916.23,VALID,0,VALID,95.6119,VALID,0,VALID,19.2696,VALID,120,VALID,0.429688,
2008-02-13, 03:09:00,VALID,916.232,VALID,0,VALID,95.762,VALID,0,VALID,19.2696,VALID,131,VALID,1.50293,
2008-02-13, 03:10:00,VALID,916.237,VALID,0,VALID,95.6654,VALID,0.0169808,VALID,19.2504,VALID,120,VALID,1.18973,
2008-02-13, 03:11:00,VALID,916.233,VALID,0,VALID,95.748,VALID,0,VALID,19.2269,VALID,122,VALID,1.46094,
2008-02-13, 03:12:00,VALID,916.234,VALID,0,VALID,95.659,VALID,0,VALID,19.2371,VALID,125,VALID,0.644903,
2008-02-13, 03:13:00,VALID,916.225,VALID,0,VALID,95.5992,VALID,-0.135847,VALID,19.2419,VALID,140,VALID,0.189499,
2008-02-13, 03:14:00,VALID,916.221,VALID,0,VALID,95.5306,VALID,-0.101885,VALID,19.2483,VALID,134,VALID,0.20476,
2008-02-13, 03:15:00,VALID,916.209,VALID,0,VALID,95.4543,VALID,-0.101885,VALID,19.2581,VALID,134,VALID,0.527166,
2008-02-13, 03:16:00,VALID,916.202,VALID,0,VALID,95.3843,VALID,-0.0679233,VALID,19.2451,VALID,127,VALID,0.498512,
2008-02-13, 03:17:00,VALID,916.2,VALID,0,VALID,95.2597,VALID,-0.0849042,VALID,19.2414,VALID,133,VALID,1.52604,
2008-02-13, 03:18:00,VALID,916.217,VALID,0,VALID,94.985,VALID,-0.0849042,VALID,19.2646,VALID,131,VALID,1.3388,
2008-02-13, 03:19:00,VALID,916.215,VALID,0,VALID,94.8655,VALID,-0.118866,VALID,19.2972,VALID,135,VALID,0.959936,
2008-02-13, 03:20:00,VALID,916.208,VALID,0,VALID,94.7142,VALID,-0.0849042,VALID,19.31,VALID,141,VALID,1.06177,
2008-02-13, 03:21:00,VALID,916.201,VALID,0,VALID,94.4255,VALID,-0.0849042,VALID,19.3262,VALID,132,VALID,0.930051,
2008-02-13, 03:22:00,VALID,916.191,VALID,0,VALID,94.2081,VALID,-0.101885,VALID,19.323,VALID,131,VALID,1.1542,
2008-02-13, 03:23:00,VALID,916.173,VALID,0,VALID,94.0186,VALID,-0.101885,VALID,19.3195,VALID,130,VALID,1.31795,
2008-02-13, 03:24:00,VALID,916.162,VALID,0,VALID,93.8978,VALID,-0.118866,VALID,19.3197,VALID,140,VALID,1.0907,
2008-02-13, 03:25:00,VALID,916.142,VALID,0,VALID,93.6918,VALID,-0.101885,VALID,19.3262,VALID,129,VALID,1.46835,
2008-02-13, 03:26:00,VALID,916.146,VALID,0,VALID,93.5189,VALID,-0.0849042,VALID,19.3552,VALID,136,VALID,1.37444,
2008-02-13, 03:27:00,VALID,916.134,VALID,0,VALID,93.379,VALID,-0.101885,VALID,19.3841,VALID,132,VALID,0.0904297,
2008-02-13, 03:28:00,VALID,916.15,VALID,0,VALID,93.5087,VALID,0,VALID,19.3854,VALID,127,VALID,0.951029,
2008-02-13, 03:29:00,VALID,916.149,VALID,0,VALID,93.6015,VALID,0.0169808,VALID,19.3854,VALID,131,VALID,1.12809,
2008-02-13, 03:30:00,VALID,916.16,VALID,0,VALID,93.4769,VALID,0,VALID,19.3557,VALID,150,VALID,0.674352,
2008-02-13, 03:31:00,VALID,916.157,VALID,0,VALID,93.1323,VALID,0.0339617,VALID,19.3462,VALID,138,VALID,1.6849,
2008-02-13, 03:32:00,VALID,916.177,VALID,0,VALID,92.7623,VALID,0.0169808,VALID,19.3759,VALID,131,VALID,1.42245,
2008-02-13, 03:33:00,VALID,916.18,VALID,0,VALID,92.6148,VALID,-0.0169808,VALID,19.3854,VALID,131,VALID,1.24829,
2008-02-13, 03:34:00,VALID,916.17,VALID,0,VALID,92.541,VALID,0.0169808,VALID,19.3984,VALID,130,VALID,1.37518,